Regional Weather Roundup
Issued by NWS

Home | Current Version | Previous Version | Graphics & Text | Print | Product List | Glossary On
Versions: 1 2 3 4 5 6 7 8 9 10 11 12 13 14 15 16 17 18 19 20 21 22 23 24 25 26 27 28 29 30 31 32 33 34 35 36 37 38 39 40 41 42 43 44 45 46 47 48 49 50
000
ASUS45 KBOU 272207
RWRCO

WEATHER ROUNDUP FOR COLORADO
NATIONAL WEATHER SERVICE DENVER/BOULDER CO
400 PM MDT THU JUL 27 2017

NOTE: "FAIR" INDICATES FEW OR NO CLOUDS BELOW 12000 FEET WITH NO
SIGNIFICANT WEATHER AND/OR OBSTRUCTIONS TO VISIBILITY.

COZ001>005-013-030-031-272300-
...NORTHWEST COLORADO...

CITY           SKY/WX    TMP DP  RH WIND       PRES   REMARKS
CRAIG          FAIR      89  45  21 W12       30.19F
HAYDEN         FAIR      84  45  24 W10       30.22F
MEEKER         FAIR      86  47  25 W8        30.21F
RABBIT EARS PA FAIR      66  46  48 W10G21    30.57S
STEAMBOAT SPGS FAIR      84  48  28 W8        30.24F
WALDEN         FAIR      77  41  27 SW10      30.36F
$$

COZ006>008-011-272300-
...WEST CENTRAL VALLEYS...

CITY           SKY/WX    TMP DP  RH WIND       PRES   REMARKS
GRAND JUNCTION FAIR      94  45  18 W10       30.06F
MONTROSE       FAIR      89  39  17 MISG      30.16F
EAGLE          MOSUNNY   88  46  23 NW8       30.22F
RIFLE          FAIR      93  50  23 N9        30.12F
DELTA          FAIR      95  49  21 NE5       30.10F
NUCLA          FAIR      91  37  15 NW7G16    30.18F
$$

COZ017>023-064>068-272300-
...SOUTHWEST COLORADO...

CITY           SKY/WX    TMP DP  RH WIND       PRES   REMARKS
DURANGO        FAIR      83  47  28 N6        30.23F
CORTEZ         FAIR      89  47  23 N16       30.15F
PAGOSA SPRINGS FAIR      81  42  25 NE7       30.33F
TELLURIDE      FAIR      69  50  51 SE8       30.47S
WOLF CREEK PAS FAIR      55  41  58 N3        30.72F
$$

COZ009-010-012-014-032>034-037-058>063-272300-
...CENTRAL COLORADO...

CITY           SKY/WX    TMP DP  RH WIND       PRES   REMARKS
ASPEN          FAIR      85  43  22 N15G21    30.29F
BUENA VISTA    PTSUNNY   75  48  37 SE16      30.32S
COPPER MTN     FAIR      68  32  26 NW15G21   30.68F
BERTHOUD PASS  PTSUNNY   52  43  71 NW6G21    30.72F
COTTONWOOD PAS CLOUDY    64  45  48 S10       30.49S
GUNNISON       FAIR      83  48  29 SW8       30.28F
KREMMLING      FAIR      84  45  24 N3        30.29F
LEADVILLE      FAIR      72  36  26 CALM      30.43F
MONARCH PASS   PTSUNNY   57  45  62 SW6       30.76F
SALIDA         PTSUNNY   77  47  35 SW5       30.36F
SUNLIGHT       FAIR      61  45  55 W7        30.62S
WILKERSON PASS RAIN      52  50  93 E12G21    30.65R
$$

COZ069>075-272300-
...SAN LUIS VALLEY/SANGRE DE CRISTO MOUNTAINS...

CITY           SKY/WX    TMP DP  RH WIND       PRES   REMARKS
ALAMOSA        FAIR      77  50  38 W20G25    30.30F
DEL NORTE      FAIR      72  48  43 W22G28    30.34F
LA VETA PASS   NOT AVBL
SAGUACHE         N/A    N/A N/A N/A MISG        N/A
$$

COZ035-036-038>040-272300-
...NORTHERN COLORADO FRONT RANGE...

CITY           SKY/WX    TMP DP  RH WIND       PRES   REMARKS
DENVER INTL AP PTSUNNY   88  56  33 SE14      30.14F
DMNS CITY PARK   N/A     83  55  37 SE10      30.13F
AURORA         MOSUNNY   85  57  38 SE8       30.17F
FRONT RANGE AP FAIR      86  55  35 SE14G21   30.16F
ERIE MUNI ARPT FAIR      84  53  33 CALM      30.12F
BOULDER MUN AP FAIR      84  55  37 CALM      30.14F
CENTENNIAL     PTSUNNY   84  56  38 SE3       30.18F
BROOMFIELD     PTSUNNY   82  55  39 S3        30.17F
FORT COLLINS   FAIR      86  61  42 SW7       30.14F
LONGMONT       FAIR      89  56  31 S6        30.14F
$$

COZ041-046-047-076>085-087-088-272300-
...PIKES PEAK/PALMER DIVIDE AND SOUTHERN FOOTHILLS...

CITY           SKY/WX    TMP DP  RH WIND       PRES   REMARKS
COLO. SPRINGS  PTSUNNY   77  61  57 S8        30.26F
A. F. ACADEMY  PTSUNNY   72  60  64 S13       30.26F
SCHRIEVER AFB  FAIR      74  58  57 S6        30.27F
CHEYENNE MTN   PTSUNNY   69  59  70 S9        30.26F
ELLICOTT       FAIR     N/A N/A N/A SE8       30.24F
FALCON           N/A     77  57  51 S10       30.31F
FORT CARSON    CLOUDY    76  61  60 S7        30.23F
LIMON          FAIR      80  62  54 SE13G20   30.19F
MONUMENT HILL  FAIR      72  59  64 S12       30.32S
CANON CITY     MOSUNNY   81  64  57 E10       30.19F
WALSENBURG     NOT AVBL
TRINIDAD       FAIR      79  59  50 E8        30.19F
$$

COZ042>045-048>051-090-091-272300-
...NORTHEAST COLORADO...

CITY           SKY/WX    TMP DP  RH WIND       PRES   REMARKS
GREELEY ARPT   FAIR      89  57  33 SE6       30.11F
AKRON          FAIR      85  58  39 SE13      30.13F
BURLINGTON     FAIR      82  64  54 SE9       30.13F
WRAY           NOT AVBL
YUMA           FAIR      82  54  36 SE13      30.11F
STERLING       FAIR      90  61  37 SE8       30.06F
HOLYOKE        FAIR      86  63  45 SE8       30.10F
FORT MORGAN    FAIR      89  54  29 SE10G17   30.10F
$$

COZ086-089-092>099-272300-
...SOUTHEAST COLORADO...

CITY           SKY/WX    TMP DP  RH WIND       PRES   REMARKS
PUEBLO         FAIR      83  61  47 SE10      30.14F
LA JUNTA       FAIR      82  66  58 E17       30.12F
LAMAR          FAIR      81  66  60 SE13      30.10F
SPRINGFIELD      N/A     76  67  73 E8        30.15F
$$



USA.gov is the U.S. government's official web portal to all federal, state and local government web resources and services.